CAPE
254 414 368 710 982 1009 242 293 90 297 152 304 439 368 525 963 1086 966 1345 1508 1422 1700 1582 1216 1363 1555 1489 780 399 179 164 426 305 418 1129 1288 866 768 1053 1143 1347 1505 2010 2035 2655 3147 3376 3948 3993 3910 3795 3771 3694 3685 3801 3836 3743 3758 3591 3621 3533 3489 3471 3398 3365 3389 3332 3282 3352 3372 3093 3253 3077 2851 2790 2569 2484 2894 2794 3018 2966 3136 3238 3349 3120 3317 2894 2540 2249 1887 2019 1905 2016 2118 2104 1994 2161
458 479 655 1288 1181 598 350 1218 244 240 500 443 165 668 430 906 848 756 692 759 583 1607 1709 1959 1888 1882 1831 2532 59 67 186 467 1242 1261 1013 782 583 871 1068 1468 1330 1646 1784 2102 2302 2854 3080 3522 3985 3997 3744 3722 3614 3518 3744 3754 3646 3600 3592 3463 3348 3310 3332 3329 3249 3251 3273 3432 3403 3384 3208 3204 3122 2973 2482 2201 2220 2192 2828 3025 3251 3362 3210 3242 3222 3153 2896 2581 2422 2252 1967 2072 2054 2255 2168 2106 2058
508 758 1112 1108 442 324 732 376 278 449 40 511 307 544 765 567 547 1652 954 822 1422 1522 1440 1336 1355 1772 1725 706 475 332 85 410 848 928 652 520 1017 1132 1146 1164 1188 1658 1999 1854 2354 2722 2990 3463 3958 3874 3644 3614 3499 3427 3636 3662 3554 3545 3542 3336 3292 3284 3161 3124 3051 3328 3468 3294 3432 3232 3319 3323 3188 3038 3064 2966 2604 2328 2220 3074 3249 3354 3122 3195 3119 3003 2959 2768 2586 2587 2312 2272 2546 2735 2515 2422 2373
718 1271 511 432 415 361 305 216 218 259 242 311 74 598 526 604 897 1252 1368 1074 1478 1140 1081 1008 1437 1193 1509 1101 592 70 114 417 821 838 716 925 1320 1123 1053 1099 1756 1521 1472 2104 2196 2512 2796 3851 3942 3927 3675 3454 3499 3462 3480 3498 3448 3358 3307 3269 3256 3082 3060 3111 3236 3420 3384 3372 3358 3426 3539 3548 3685 3412 3176 2832 2905 2718 2138 2707 3172 3294 3088 3120 3003 3066 3153 2876 2704 2589 2510 2564 2838 2980 2725 2950 2705
1102 1312 688 1070 544 287 207 190 256 557 116 179 220 650 550 599 893 1208 1260 1151 1320 986 1086 1325 1230 1421 1815 1944 1531 169 79 300 414 639 658 841 971 1100 1004 1121 1140 1127 1251 1987 1981 2455 3068 3752 3941 3738 3721 3443 3397 3392 3265 3220 3127 3176 3158 3146 3114 3089 2895 3056 3346 3487 3396 3344 3265 3302 3324 3476 3490 3667 3362 3224 2798 2858 2271 2627 3088 3082 2923 2911 2849 2933 3214 2922 2746 2651 2754 2927 3155 3288 3094 3158 3056
1521 1194 1480 1113 704 838 350 395 466 455 692 556 543 459 570 735 921 1124 1108 1595 1001 1104 1142 1140 1325 1512 1688 1956 2265 886 1768 170 372 509 724 877 1142 1109 1178 1155 969 738 1081 1111 1986 2964 3257 3880 3860 3577 3486 3406 3198 3156 3091 2950 3030 3134 3081 3180 2952 2902 3081 3140 3282 3271 3261 3252 3308 3225 3294 3416 3566 3523 3440 3247 3054 2801 2396 2668 2837 2981 2910 2896 2827 2875 3465 3109 2884 2968 3026 3180 3357 3428 3262 3205 3276
878 1077 1329 955 860 718 592 520 291 509 436 765 834 508 1067 754 919 997 704 725 842 789 1304 1324 1552 1492 1562 2202 1611 1917 1738 38 464 850 776 800 1183 1435 1616 1453 992 769 852 1274 2890 2950 3412 3712 3607 3480 3375 3248 3060 3094 2960 2907 2963 3083 3058 2973 2867 2946 3010 3258 3269 3248 3007 2956 3134 3114 3190 3342 3486 3385 3365 3301 2957 2728 2330 2614 2800 2942 2821 2801 2898 2972 3038 3382 3360 3366 3508 3650 3701 3611 3412 3352 3403
1492 561 1008 606 238 608 509 1050 535 657 613 915 972 987 1025 1320 624 794 531 1053 393 839 1193 1488 1197 1544 1311 1637 1233 1766 2141 396 616 936 761 708 885 1214 1237 1044 953 787 1119 2102 2593 2911 3851 3552 3434 3322 3176 3073 2928 2947 2739 2574 2582 2382 2992 2910 2658 2914 3119 3193 3203 3211 3058 3242 3192 3180 3298 3421 3512 3401 3263 3243 2883 2560 2511 2527 2798 2841 2673 2818 2912 3129 3209 3362 3558 3714 3867 4021 4150 3772 3365 3118 2875
1424 729 1316 634 726 565 529 483 555 815 731 760 1103 1211 1214 1228 794 689 596 813 502 1072 938 981 1002 1039 1356 1643 1733 1457 731 241 498 877 815 820 919 1252 1198 1120 938 1119 1722 2585 2444 3121 3308 3587 3305 3131 3115 2982 2701 2632 2510 2299 2547 2688 2649 2535 2600 2914 3028 3040 2750 2669 2397 2728 3047 3259 3040 3354 3436 3343 3252 3259 2962 2609 2588 2602 2671 2658 2677 2726 2908 3184 3294 3528 3742 3818 3761 3774 3700 3825 3354 3158 3215
1061 1309 778 644 664 616 577 981 683 1017 798 932 954 1118 1115 1148 591 892 836 808 549 792 888 838 1094 1139 1280 1396 1329 1568 980 407 292 584 668 858 694 768 1101 1298 1500 1685 1883 2282 2910 2805 2693 3494 3040 3034 2990 2797 2658 2569 2414 2382 2281 2553 2592 2486 2748 2856 2775 2666 2650 2065 2638 2464 2426 2916 3261 3357 3274 3261 3304 3212 2747 2592 2695 2678 2746 2753 2521 2758 2946 3083 3372 3696 3870 3940 4026 4016 4025 3963 4048 3513 3411
909 1005 1190 497 501 511 286 212 738 697 779 771 900 948 1194 669 1016 618 656 518 608 885 970 1110 1065 1142 1334 1509 1746 1684 2092 284 327 556 540 520 418 612 1258 1420 2228 2204 2147 2428 2588 2349 2949 2888 3039 2854 2851 2749 2712 2510 2449 2334 2252 2366 2554 2570 2826 2544 2716 2856 2178 2970 2552 2568 2322 2708 3293 3357 3323 3254 3194 3032 2718 2761 2928 2858 2809 2863 2750 2861 2850 3061 3676 3909 4087 4085 4132 4191 4389 4392 4244 4391 4292
1151 912 1242 711 718 476 465 899 577 576 884 796 931 1692 938 744 1095 710 646 555 779 1148 1357 1280 1063 1512 1385 1278 1455 1785 2420 180 304 425 469 416 426 1465 1792 1627 1593 1837 2240 2060 2298 2277 2037 2738 2766 2866 2638 2724 2559 2549 2390 2436 2312 2290 2492 2704 2694 2489 2620 2593 2808 2427 2466 2507 2072 2681 3243 3352 3455 3328 2996 2887 2765 3066 3039 2984 2888 2724 2764 2676 3060 3536 3788 4021 4130 4183 4150 4228 4415 4398 4695 4644 4814
1131 1509 772 816 430 590 667 549 755 774 664 694 1018 1522 960 1049 622 653 511 1162 1083 1114 1092 1119 1667 1841 1190 1406 1160 2382 2408 194 263 550 448 442 518 979 821 1145 1197 1309 1606 2359 2246 2099 1884 2029 1968 2704 2473 2678 2330 2202 2547 2374 2341 2438 2492 2387 2375 2639 2638 2818 2554 2644 2455 2584 3042 3352 3475 3444 3550 2970 2894 2901 3054 3161 3198 3082 2904 2848 3030 3150 3320 3661 3900 3980 4179 4251 4355 4529 4480 4724 4568 4968 5011
1285 1371 1143 762 726 1146 803 298 1242 492 883 708 1058 1351 994 890 1045 615 572 600 856 1226 952 1012 1236 1482 1355 1251 1520 1656 1344 450 370 400 388 466 433 455 852 908 1230 1500 1518 1722 2083 1908 1755 1704 1882 2276 2362 2424 2244 2389 2565 2594 2446 2444 2463 2591 2652 2792 2932 2680 2728 2493 2687 3040 3190 3291 3350 3241 3128 3034 3082 3174 3123 3280 3259 3156 3173 3064 3282 3550 3486 3526 3714 3992 4078 4476 4535 4833 4904 4898 5098 4651 4891
1378 1485 1432 1190 694 686 680 743 694 610 877 958 1041 980 1051 1006 984 1040 994 807 965 1516 1400 1510 1682 1129 934 1168 1195 1642 364 294 314 338 428 382 215 212 340 450 884 1253 1471 1915 1626 1685 1601 1782 1879 2097 2435 2306 2300 2202 2510 2656 2696 2181 2598 2628 2532 2774 2720 2805 2494 2626 3157 3127 3093 3040 3071 3054 3116 3074 2945 3266 3745 3710 3637 3355 3303 3348 3595 3391 3208 3372 3800 3926 4291 4635 5154 4887 5107 5264 5322 5637 4710
1786 2079 1371 724 489 897 617 570 533 1028 1322 1156 986 1296 996 1208 1418 1045 1018 1359 1152 1601 1798 1266 1509 2162 1073 1284 1310 1451 369 284 326 278 345 305 330 282 270 282 379 580 605 816 1488 1439 1393 1608 1412 1962 2108 2108 2156 2190 2122 2722 2787 2556 2542 2650 2842 2702 2774 2435 2742 3184 3410 3297 3079 3057 3164 3220 3016 2966 3530 3850 3846 4030 3922 3606 3534 3898 4090 3528 3608 4155 4003 4311 4618 4902 5105 5713 5164 5654 5810 5715 5712
2142 1658 1481 300 793 652 766 878 781 390 1341 1486 1534 1344 1182 692 903 1187 890 1484 1542 1412 1505 1562 1891 1914 1466 1406 1234 714 304 140 238 297 382 350 448 324 270 252 306 370 482 536 1162 1354 1090 1403 1352 1811 1775 1814 1944 1804 2116 2784 2652 2630 2635 2784 2679 2793 2565 2752 3202 3438 3423 3252 3290 3345 3378 3266 3649 3824 2991 3294 3712 4260 4058 3941 4356 4526 4042 4413 4311 4509 4564 4733 5290 5274 5731 5884 6024 5647 6245 6203 5777
2269 1571 758 778 1059 714 861 1076 849 834 1822 1724 1612 1584 1227 883 1058 1176 1531 1284 1283 1537 1721 1649 1936 1816 1902 1291 1175 840 240 154 322 360 529 448 262 314 288 264 231 315 309 392 614 540 652 780 1504 1533 1124 1193 1046 1657 1771 2510 2848 2624 2563 2577 2601 2496 2738 3164 3465 3315 3251 3585 3500 3669 3525 3554 2745 2881 1934 1044 1779 2586 2332 4528 4678 4588 4702 4572 4870 4777 5328 5425 5813 6040 5829 6330 6506 6433 6444 6151 5111
2080 1155 492 678 1026 1228 1122 1295 1098 1168 1568 1963 1544 1467 806 1088 1376 1485 1412 1440 1304 1244 1724 1934 1810 1941 1367 1339 1154 774 186 286 377 445 553 447 323 207 305 260 275 238 286 254 227 94 210 470 1062 873 978 992 776 1252 2020 2684 2812 2306 2477 2515 2437 2818 3422 3724 3570 3469 3553 3696 3637 2666 3720 1984 1158 2008 1832 1539 1660 1242 1756 2560 3618 4077 4364 4958 5185 5538 5736 5949 5805 6433 6396 6060 6559 6545 6086 5496 4986
1702 1058 440 822 402 1058 1208 1579 1216 1285 1792 1706 1558 1572 930 1618 1406 1450 1420 1258 1332 1435 1410 1630 1896 2229 1594 1187 867 500 185 195 358 445 572 554 401 286 299 272 300 298 292 308 142 5 144 156 444 609 257 573 778 618 1080 2849 1836 1914 2336 2916 3301 3629 3702 3621 3894 3950 3497 3264 1881 2247 1726 1776 1626 1795 1526 1834 2032 2493 2850 3658 4405 4462 4912 5609 6064 6070 5644 5281 5760 7132 7089 5816 3770 4986 4450 3989 3079
664 1613 806 541 297 566 1056 1783 1410 1415 1624 1839 2027 1755 1282 1344 1466 914 1210 1337 1611 1711 1511 1378 1626 1770 1759 859 500 342 181 221 374 292 557 525 449 346 278 333 331 590 581 468 354 124 109 116 250 159 126 10 378 434 636 1949 1824 2127 3000 3132 2939 3670 3791 3740 3296 3472 3010 2818 2184 2043 1226 995 511 1557 2080 2889 3030 3379 2568 3643 2527 3958 4100 4384 4119 3940 3748 2706 3273 3414 2948 2767 2968 2621 2526 2919 2898
470 797 634 396 275 402 787 1848 1988 1227 1525 2100 1822 1544 1114 938 1208 1027 1120 1100 1288 1831 1871 1564 1696 1550 1486 858 457 288 197 308 396 366 358 282 352 361 358 417 458 878 924 750 532 389 336 266 117 12 65 15 336 376 490 896 2082 1737 1592 2129 2301 2327 2318 2256 1792 1493 1322 2487 1794 1158 902 752 1035 1346 2350 1842 1828 3264 3026 4346 2279 2146 3560 2492 2622 3216 3603 2299 3882 3135 2512 1906 2618 2876 2665 2934 3010
379 632 633 300 212 517 472 1480 1842 1580 2123 2204 2088 2120 1922 1763 916 892 1510 1478 1222 1228 1706 1670 1950 1474 1466 1102 456 301 174 205 303 305 454 302 422 366 456 434 500 494 503 672 738 540 352 228 249 12 75 32 312 329 538 800 1071 940 1154 1669 1625 1449 1228 1047 964 811 771 1376 1059 1111 1150 1566 1118 1100 1460 1833 2684 1804 2350 2500 2284 1873 1512 2497 1694 2646 3299 2093 1808 2426 2143 2296 2664 2716 1968 1961 2242
439 510 352 143 276 502 623 2113 1870 1456 2278 2690 2355 1994 1757 1294 1271 1540 1695 1480 1596 1772 1717 1905 1559 1656 1244 915 302 242 146 111 223 279 404 270 330 356 335 310 338 410 496 502 438 426 212 70 163 30 50 36 422 248 444 666 658 572 669 1543 1028 1384 1346 934 760 550 1341 1400 1370 1261 1718 1492 1649 1747 1923 1901 2849 2756 2590 3464 2606 3108 1406 2153 1838 3020 2082 2025 1744 2390 1941 1840 1936 1284 678 1127 711
432 239 90 145 245 710 640 748 1490 1678 2542 2383 2240 2365 2207 1990 888 1177 1670 1713 1742 2026 1921 1942 1414 1338 1235 610 322 212 145 45 22 169 116 120 172 94 146 107 210 192 316 196 245 184 126 99 118 20 26 275 149 126 327 423 434 582 602 617 652 692 363 506 444 623 938 1000 1132 1384 1348 1672 1596 2514 2498 2726 1890 2080 2522 2506 2602 1875 2966 2728 1660 1915 2076 2115 2847 2188 1751 2068 1031 355 759 427 722
256 106 123 96 268 927 1099 1414 1442 1792 1988 1659 2190 2362 2454 2416 1206 1189 1127 1326 2145 2162 1748 1745 1856 1225 1154 711 443 236 126 62 16 26 47 16 35 4 20 15 72 0 152 31 64 44 36 50 49 26 29 220 116 60 398 386 717 520 455 760 1151 1734 1064 574 536 790 793 761 910 1069 1206 1490 1609 2486 2476 1616 2735 1401 1502 1549 1216 1902 2167 2424 2299 1859 2336 1058 1738 1738 794 747 699 662 877 719 871
132 93 82 125 462 690 1458 1374 1853 2402 2473 2138 2256 2466 2468 2326 1886 1227 1489 1587 2171 2198 1870 1668 1640 1188 892 880 646 361 42 29 40 5 17 3 16 0 6 0 2 0 30 0 0 0 52 7 30 56 37 786 76 64 588 713 957 458 456 485 474 902 1078 1100 742 455 788 895 1514 1851 1544 1382 1554 2383 2000 1580 1984 1891 1944 1557 2229 2354 2241 934 1055 1016 1020 1139 1264 992 782 697 875 1146 1153 819 956
62 93 74 357 344 1076 1442 1593 2166 2198 1739 2320 1928 2181 2233 2334 1974 1190 1366 1774 2092 2194 1723 1911 1268 1293 1067 696 489 456 175 26 66 13 104 16 9 0 0 0 0 0 0 0 0 0 33 0 36 119 42 266 333 156 832 456 734 597 868 509 484 702 1333 723 664 721 1116 1240 1451 2126 1538 1420 1721 1684 1889 1146 957 1940 2107 1346 1883 2176 2582 954 1346 1339 1200 1252 1258 1076 981 820 1060 1076 953 922 956
48 18 63 424 200 316 641 1830 2362 2057 1906 2080 1928 2210 1904 2376 1902 2075 2291 1764 1825 2186 2027 1998 1678 1132 750 842 472 392 109 24 58 48 52 25 2 0 0 0 0 0 0 0 0 0 14 0 25 67 19 78 205 184 92 470 408 516 499 511 483 527 1003 560 724 763 742 996 1034 1392 1853 1090 1680 1627 3139 1901 2163 1442 2463 1368 878 1151 1458 1780 1402 1654 658 1434 1415 1290 1280 984 1095 1054 1075 1095 1250
5 102 204 400 230 257 294 1250 2821 2269 1791 2119 1508 951 1007 1042 2332 2387 2154 2351 2415 2301 1891 2054 2006 1205 608 679 458 219 64 23 40 14 23 2 0 0 0 0 0 0 0 0 0 0 0 0 39 2 4 180 170 458 166 422 426 456 526 392 540 526 503 603 603 631 953 1488 1467 1056 1106 1316 1798 2468 1777 1697 1598 960 1142 983 1409 733 985 1420 1716 2208 1182 747 945 899 1114 1062 1506 1409 1062 1302 1412
18 297 232 484 136 120 215 1472 1920 1875 2358 2348 2042 940 542 1652 2714 2733 2358 2071 2208 1898 1348 2174 1968 1244 1040 911 574 515 158 14 36 14 2 0 0 0 0 0 0 0 0 0 0 0 0 0 11 0 0 136 144 467 272 224 564 353 438 494 366 595 549 611 507 404 555 517 545 1034 1190 1421 1205 1478 1855 1676 1323 1444 1320 1402 1638 1230 1361 1383 2354 1593 1014 645 1114 1146 1341 1103 1048 1230 1361 1199 988
121 219 96 366 48 192 226 214 1362 2052 1796 2711 1857 520 477 1311 2308 2744 2315 2382 2164 1677 1882 2099 2065 1924 1702 931 754 347 294 24 44 13 4 0 0 0 0 0 0 0 0 0 0 0 0 0 6 20 9 67 9 636 502 542 432 451 462 303 430 481 512 423 399 511 445 495 626 1212 860 1691 1344 1321 1575 2008 2000 1504 1197 852 1693 2679 1131 1028 972 2683 1651 1437 1096 1302 1522 1664 1800 1515 1582 1667 847
231 73 520 201 108 72 183 319 194 905 1986 1961 2102 886 1124 1708 2452 2633 2494 2238 2020 1508 1764 1909 1832 2213 2049 1436 1161 636 244 189 68 63 4 0 0 0 0 0 0 0 0 0 0 0 0 0 0 70 126 12 0 202 171 354 394 298 653 334 520 524 450 512 384 547 615 780 552 999 1708 1410 1187 1714 1749 1818 1865 1322 812 1053 808 865 896 1267 1382 703 734 1224 1256 1174 2136 2748 2554 1780 1473 1226 1080
56 123 140 51 21 140 130 96 51 793 1389 1446 1325 676 624 1226 1918 2340 2510 2164 2234 1633 1524 1944 2164 1811 1759 1675 1484 1082 733 222 98 94 19 0 0 0 0 0 0 0 0 0 0 0 0 0 0 1 123 86 0 232 176 377 200 470 552 518 700 438 402 422 438 417 623 533 602 1226 1552 1122 1850 1584 1664 2204 2022 1365 1350 1486 967 942 1063 1381 1520 1099 1234 911 1301 1995 2358 2251 1775 1616 1427 1293 253
213 26 148 173 124 180 137 5 314 488 498 698 1232 856 967 1593 1827 2303 2438 2484 1876 1507 1378 1384 1827 1688 1783 1332 1694 824 548 354 184 72 22 9 4 0 0 0 0 0 0 0 0 0 0 0 0 140 2 202 88 185 492 303 207 634 436 572 568 574 610 516 600 428 354 459 693 1560 1276 778 2147 1426 1342 2489 2851 1155 1133 1368 954 1350 1706 1362 1442 1151 1178 1545 2148 2080 2120 1257 1871 1433 1366 1125 3
268 280 149 56 0 25 8 4 0 6 67 50 806 903 1401 2002 1774 1770 1938 2298 2205 1471 1706 1698 1521 1633 1562 1402 1504 995 1198 500 386 136 18 21 16 2 0 0 0 0 0 0 0 0 5 0 0 106 4 16 90 280 127 159 436 550 589 531 557 461 548 672 832 597 464 506 1143 1135 770 1391 1739 2130 1158 1636 2430 1682 904 1305 1149 1093 1485 1034 1425 1110 1440 1714 1806 2226 2156 1888 1642 1309 1191 7 0
23 81 116 101 3 2 0 1 0 0 0 402 658 288 1543 1893 1890 1902 2152 2129 2262 1836 1485 1122 1289 1512 1631 1590 1662 1382 890 860 613 423 208 63 46 8 27 0 0 0 0 1 0 0 2 2 0 44 96 31 17 243 121 138 482 638 667 532 562 320 544 525 463 466 612 494 846 565 647 1225 1471 1244 2084 1648 1444 2161 1970 1683 1452 1068 1340 1408 1476 1902 1715 2010 2108 2198 1942 2040 1370 1416 132 0 3
4 2 6 14 0 0 0 0 2 0 0 6 409 504 949 1583 1899 1687 1954 2295 1613 1793 1453 1492 1452 1780 1752 1912 1980 1794 1204 1453 936 454 287 166 104 76 81 8 91 0 35 0 0 0 0 92 0 0 67 224 122 46 99 128 549 579 547 526 438 342 420 534 438 381 384 583 1614 984 267 1715 1014 1106 1984 1859 2431 1391 1411 1618 1626 1830 1517 1394 1673 1715 2438 3006 2319 1885 1646 1636 1430 557 0 0 22
0 0 0 0 0 0 0 0 0 1 0 0 683 341 611 1538 1867 1735 1838 2066 1844 1818 1360 1208 1416 1471 1466 1797 1988 1732 1483 1481 1126 435 375 191 167 103 154 94 110 16 23 4 12 2 0 76 318 86 6 79 212 46 218 260 639 853 494 489 624 317 323 352 342 341 364 648 865 446 900 2135 1310 1324 1346 2758 1485 1745 1379 1626 1753 1601 1837 2203 2483 1836 1810 2245 2002 1024 1350 1927 668 1 0 0 294
0 0 0 0 0 0 0 1 0 2 0 0 1 962 1129 1317 1574 1915 1816 1549 1537 1855 1326 1722 1314 1350 1404 1403 1670 1713 1466 1415 1521 1308 911 207 188 286 236 297 240 155 150 127 84 106 21 293 885 688 313 73 392 396 572 149 844 1224 2636 2548 2168 2150 1668 1326 1158 596 452 524 300 98 1041 774 1119 1157 1081 793 1639 1269 1732 2816 1464 1220 2484 2322 1406 2174 2365 1361 1184 1120 1454 1457 316 33 0 5 4
0 0 0 0 0 0 0 0 0 0 0 0 0 686 1025 902 1482 1450 1782 1215 1132 1210 1284 1383 1427 1159 1226 1158 1175 1722 1640 1714 1652 1761 1683 410 314 306 604 468 398 284 272 278 264 237 249 134 630 1142 813 199 250 1084 714 772 2696 2238 3374 2831 2324 2396 1484 1141 906 564 506 820 476 541 566 1134 680 731 898 850 1802 2426 2414 2864 2303 1703 1780 2002 1092 1368 1444 984 736 1160 1342 852 74 104 4 0 32
0 0 0 0 0 0 0 0 0 0 0 3 6 50 242 1102 824 734 1001 1277 1440 1470 1254 1269 1074 806 1131 1298 1342 1732 1728 1611 1930 1922 2084 1016 660 864 643 737 559 438 548 506 470 389 324 198 402 992 863 348 100 541 805 1434 2648 2762 2503 2744 1960 2176 1522 1278 724 564 194 89 341 451 558 574 718 824 767 808 1610 2021 2086 2406 2022 2552 1530 1584 1195 1354 1332 997 1177 1056 408 67 4 71 41 124 67
0 0 0 3 0 0 0 0 0 0 0 53 0 45 3 475 751 1150 1286 1357 1232 1514 1564 1333 1236 1468 2065 1629 1182 1134 1428 1488 1547 1767 1965 1428 468 1022 582 888 836 619 648 511 406 364 333 268 496 522 815 591 204 593 888 2284 2270 2239 1837 1772 1082 1288 1147 579 452 333 40 56 178 1124 826 887 466 988 1014 1700 1291 1500 2500 2660 2535 2367 1174 938 1757 1174 1216 1030 1510 1425 1228 0 34 375 288 541 404
0 0 0 0 0 0 0 0 0 0 0 0 9 0 1 509 395 1410 1144 878 1347 1734 1710 1710 1542 1341 1143 1493 1762 1733 1453 1518 1628 1873 1850 1286 878 564 588 729 787 940 913 416 445 344 421 485 592 723 1060 764 223 499 1079 1957 2512 2283 2082 1278 583 585 142 678 314 512 516 1988 1378 632 433 428 579 643 1699 1750 2068 2179 2278 2098 2252 2311 1897 1182 1234 1117 1411 1545 1775 1708 1345 47 741 680 287 298 561
0 0 0 0 0 0 0 0 0 0 0 0 0 0 26 12 321 384 372 776 1146 1306 1565 1990 1627 1381 975 1258 1567 1418 1784 1793 1505 1567 1603 1280 1483 1236 614 720 767 806 496 318 290 369 521 469 836 710 1001 898 710 554 928 1599 2545 2413 1981 1203 1604 641 383 248 365 545 1355 1013 784 557 617 883 1238 1546 1804 1969 1722 1714 2072 1914 1670 2205 2224 1738 1532 1300 1472 1386 1488 1375 936 78 233 594 371 389 685
0 0 0 0 0 0 0 0 0 0 0 4 0 0 7 265 228 301 512 252 1093 1139 1185 1763 1767 1846 1517 1307 1198 1136 1594 1624 1408 1773 1629 1188 1902 1575 609 574 658 910 610 272 247 350 379 657 626 648 888 843 555 796 1183 1791 2588 2588 2267 2074 1669 1960 646 928 413 1198 2350 2068 1673 1200 1196 1424 664 1186 2422 2565 2337 1307 1723 1828 1798 1377 1512 1042 1027 1112 1356 1454 1360 927 352 121 296 957 674 330 211
0 0 0 0 0 0 0 0 0 0 0 0 0 0 1 119 210 148 369 535 298 826 1378 1412 1848 1668 1568 1691 1177 1316 1288 1363 1295 1228 1373 1622 1821 1724 1154 1083 613 489 986 1056 568 269 437 618 596 738 1164 491 904 1094 1444 1696 2100 1741 1950 2318 2017 1548 1426 1007 581 1015 2420 1886 2113 757 650 956 631 1161 1312 1468 1801 977 1330 756 861 1154 856 1746 1195 1439 1936 1099 702 117 94 605 535 840 581 411 104
0 0 0 0 0 0 0 0 0 0 0 0 0 0 1 236 33 314 337 324 182 329 1427 1415 1475 1522 1504 1106 1019 1624 1784 1872 1382 1227 1584 1764 1966 1654 1757 979 823 780 740 765 198 299 406 469 490 954 1097 880 1050 839 1309 1234 1352 1784 1521 1848 2292 1841 1856 550 816 918 902 1597 1082 1284 1335 553 502 548 1142 1420 1490 1090 1096 1053 1336 1110 1576 2374 1864 2023 1559 1218 588 15 0 61 78 488 783 834 394
0 0 0 0 0 0 0 0 0 0 0 0 0 20 20 76 4 126 191 113 178 1016 1260 1255 1269 1348 1450 1387 1020 1079 1438 1554 1589 1570 1279 1431 1687 1840 1534 1154 1140 740 1012 713 834 788 201 341 494 775 1269 1155 1345 903 1607 1731 1522 1516 1433 1411 2098 2280 1556 2093 1062 1280 977 1164 841 874 1612 2403 1905 1517 700 584 639 575 2100 1659 843 2269 3280 2887 3436 2285 1566 1075 605 0 62 108 323 532 800 575 250
0 0 0 0 0 0 0 0 28 18 1 0 0 32 17 1 104 366 215 500 261 718 983 760 945 653 1161 1238 760 1064 1344 1278 1334 1257 1248 1276 1503 1666 1761 1618 1427 1364 1165 924 856 957 438 452 802 485 1188 1111 1602 1473 1310 1786 1687 1552 1450 1319 1369 1922 2137 1192 1968 377 590 876 940 789 494 575 906 455 448 930 578 515 1264 1664 2158 3263 3477 3076 2874 2194 1130 828 717 167 144 334 34 448 788 790 368
0 0 0 0 0 0 1 0 0 0 40 0 0 0 473 0 88 32 121 468 192 222 348 628 558 1016 1323 917 733 717 608 1105 1528 1556 1350 1298 1385 1143 1133 1308 1242 1428 1262 800 730 650 1015 340 774 1330 1191 1079 1538 1596 1575 1656 1229 1104 1114 717 1225 1020 1263 1197 1144 726 630 610 311 265 569 374 119 372 423 1264 1876 764 1598 1432 2876 3152 2932 2572 2667 2010 1282 518 538 748 687 530 555 274 495 676 117
0 0 0 0 0 0 0 0 0 72 119 310 32 261 3 55 1 0 70 90 199 260 285 477 625 1121 924 886 714 672 518 812 1264 1610 1604 1444 1516 1531 1468 1411 1096 1198 1712 1332 1137 1354 1491 620 729 405 1264 807 850 1768 1504 1101 1156 787 1415 1222 1148 1037 1509 935 1229 1642 2004 648 374 70 558 2002 662 449 1601 1604 1103 636 2579 2525 2850 2910 2899 2782 1891 1607 1090 630 646 1214 1791 945 275 120 176 430 370
0 0 0 0 0 0 2 2 0 0 0 36 71 241 539 0 13 2 167 137 54 342 346 574 873 887 1065 893 957 750 601 542 584 740 1379 1349 1310 1413 954 876 899 1214 1832 2509 2636 1550 1272 1378 753 877 1084 628 582 1279 829 774 924 784 852 818 700 820 642 596 492 381 488 542 752 740 316 383 467 1282 901 1380 871 926 1546 1768 2858 2682 2950 2384 1838 1458 868 832 1003 860 380 1033 529 446 916 428 650
0 0 2 0 0 1 0 0 1 1 26 356 26 145 10 15 2 3 50 167 65 186 340 455 499 887 987 1123 874 1225 1182 1298 1770 1026 916 1146 1181 1303 1365 1069 870 1124 1758 1991 2730 2480 1948 1176 954 972 591 930 588 919 559 493 583 542 638 679 683 690 667 406 363 283 32 204 462 614 677 346 308 454 532 670 600 1492 1886 1868 2888 2823 2139 2028 1421 994 640 594 742 872 874 715 962 936 1034 786 974
0 0 0 0 1 0 0 0 0 0 40 70 170 10 24 65 27 68 18 389 49 86 117 378 311 347 459 901 984 1108 1445 2366 1870 1436 1173 996 979 996 1252 1244 1284 1255 1476 1748 1745 2136 1922 1394 1915 978 442 516 592 605 488 468 576 492 506 506 444 677 601 523 834 998 78 7 132 245 413 726 374 708 926 1652 1750 1234 1761 1674 2982 2538 2333 1956 1413 980 703 526 922 912 414 556 1132 1225 1052 990 572
0 0 0 0 0 0 0 0 0 0 510 36 150 32 180 131 686 1 7 107 266 0 162 250 206 408 1308 586 485 1272 2254 2254 1888 1553 1386 965 630 842 1030 1275 1272 904 950 1386 1726 1504 1426 2368 880 518 1000 1409 1659 1390 979 826 557 508 365 465 446 717 834 1565 1092 1141 84 6 12 159 403 258 478 580 617 1826 984 1608 2125 2276 2120 2084 1688 1485 1196 951 719 804 897 2661 478 422 700 1074 839 882 598
0 0 0 0 0 0 0 9 0 459 451 184 137 217 293 164 56 312 263 55 360 40 520 370 376 508 764 684 734 1652 1708 2162 2164 1683 1638 1153 732 509 610 972 1228 1046 980 1322 1468 1653 1514 2415 1679 1361 1337 982 1105 1363 1425 1339 1262 761 500 276 296 343 385 1480 1183 354 121 38 8 51 139 162 389 509 1210 1263 775 849 2176 2294 2150 2300 1635 1753 1866 1417 858 814 1606 1393 1238 1563 1668 1564 1079 654 1018
0 0 0 0 0 0 0 0 0 78 122 540 109 164 6 2 17 69 60 116 323 472 122 662 1230 1167 830 376 410 1012 2106 1790 2287 2012 2027 1438 2283 673 476 706 969 1144 1132 1043 1145 1259 1327 1649 1510 1402 1610 2202 1496 1443 1468 1694 1679 1053 280 278 258 312 708 1123 1203 37 8 8 11 36 75 196 168 745 1040 934 1256 551 1686 1910 1048 1985 1675 1558 2228 1961 730 908 946 876 921 1071 1412 1203 974 936 795
Wind_Speed
15 14 15 16 14 12 11 9 nan 4 4 4 3 5 2 5 11 9 9 8 7 5 8 5 8 11 9 7 6 11 14 10 12 7 5 3 8 10 9 11 12 10 8 5 4 3 4 4 5 7 8 9 10 11 11 10 10 11 11 10 8 8 8 8 7 6 6 5 6 5 5 5 4 3 4 6 9 9 10 8 8 8 8 7 6 6 6 7 6 5 6 7 10 10 8 7 5
14 15 16 15 14 12 8 4 6 6 6 2 5 7 7 9 10 12 12 10 5 6 7 4 8 10 8 13 nan nan 13 14 14 11 11 11 11 9 13 12 11 12 9 7 6 5 5 5 5 6 8 9 10 11 11 10 10 11 11 10 9 8 8 8 7 7 6 7 6 7 6 5 4 3 4 7 10 12 12 10 9 10 9 9 8 6 8 8 7 6 10 12 14 14 12 9 6
15 15 14 16 13 11 7 8 7 5 nan 8 8 7 5 11 10 9 15 10 8 8 6 8 11 13 10 7 10 9 nan 14 16 14 11 15 11 8 14 13 11 11 11 7 7 6 4 6 6 7 8 9 11 11 11 11 11 11 11 10 9 9 9 8 7 7 7 7 7 6 5 3 2 2 5 8 10 12 12 12 11 10 10 10 10 5 7 8 9 11 13 14 14 14 14 11 10
9 15 14 13 8 10 8 7 7 6 7 7 nan 8 6 9 12 13 13 13 6 7 6 7 11 12 11 13 10 nan 9 11 13 13 10 10 6 9 13 13 12 9 9 8 8 7 6 7 8 9 9 10 11 11 11 11 11 10 10 9 9 9 8 8 8 7 7 7 7 6 5 4 3 5 7 9 10 11 12 12 10 10 11 12 11 7 8 9 10 13 16 16 17 16 16 15 15
17 14 17 9 10 10 10 10 9 8 10 8 7 9 8 10 15 16 9 5 6 8 9 10 9 14 13 10 8 6 nan 10 12 10 7 9 16 11 12 13 11 10 10 10 9 8 9 12 9 11 10 11 11 11 12 12 11 10 9 9 8 8 7 7 7 7 6 6 5 5 4 3 3 6 10 12 11 11 12 12 10 10 13 13 12 9 10 10 13 16 19 19 19 20 18 18 16
16 14 8 8 12 9 9 8 9 10 9 9 6 8 5 10 13 13 10 6 7 9 8 11 8 9 12 9 9 6 10 5 5 7 9 11 17 17 14 11 11 10 11 10 9 8 10 12 11 13 13 13 12 11 12 12 11 10 8 8 8 8 7 7 6 5 5 5 4 4 2 3 5 9 12 13 13 12 12 12 11 11 13 14 13 11 11 12 15 18 21 21 20 21 18 19 20
9 10 8 9 12 8 9 10 13 12 6 8 5 8 12 15 13 13 8 6 8 10 15 11 10 11 11 8 4 11 11 nan 4 7 8 15 16 16 14 10 10 12 13 10 9 9 13 14 13 14 14 13 12 12 11 11 11 9 9 8 8 8 8 7 6 5 5 5 4 3 3 4 7 10 12 14 14 13 12 13 12 12 14 15 15 13 12 14 17 21 22 22 21 20 18 19 21
10 12 13 15 10 8 13 12 9 7 10 8 8 14 14 15 14 10 4 3 4 2 8 10 12 13 9 14 5 7 7 6 8 9 16 16 17 17 14 12 10 11 11 11 9 9 14 16 15 15 14 14 13 12 11 11 10 9 9 8 8 8 7 6 5 5 5 4 4 4 4 6 8 10 12 14 15 13 13 13 13 12 14 17 17 15 14 15 19 21 22 22 22 21 21 21 21
16 17 15 15 13 14 15 9 5 8 7 6 7 9 13 13 14 11 7 5 5 4 4 9 10 9 7 7 9 13 6 3 13 11 13 17 17 17 9 10 12 10 12 11 11 11 12 15 16 15 14 14 13 12 11 10 9 9 9 9 8 7 6 6 5 6 4 5 5 5 6 8 9 11 12 14 14 15 14 13 13 13 15 17 17 16 15 16 18 20 19 20 21 20 22 23 22
15 18 16 12 14 16 14 12 12 9 10 7 8 10 13 14 14 9 11 8 3 7 12 20 13 6 5 7 5 10 7 4 14 11 15 14 14 13 12 9 12 13 11 11 11 11 10 16 16 15 15 15 13 12 11 10 10 9 9 8 8 7 6 6 6 5 6 6 7 7 8 9 10 12 13 15 16 16 15 14 14 15 16 17 18 18 16 16 18 19 20 20 21 21 22 23 22
13 16 18 18 19 15 10 10 11 8 9 9 8 9 13 12 13 9 3 9 4 8 8 11 10 6 7 11 8 6 14 9 11 10 12 13 15 15 10 10 10 11 13 14 12 11 11 11 17 15 15 15 15 14 12 11 10 9 8 8 7 7 6 7 7 7 7 8 8 9 10 11 12 12 14 15 16 16 16 15 15 15 17 18 19 19 18 18 19 20 22 23 23 21 21 22 22
17 17 15 15 18 15 11 12 13 14 10 10 8 9 11 15 15 14 9 10 3 5 10 16 7 3 5 5 8 9 15 8 10 9 10 10 12 15 11 8 11 11 12 13 12 11 12 11 11 14 15 16 16 14 12 11 9 8 7 7 7 7 7 8 8 8 9 9 10 11 12 12 13 13 15 16 16 16 17 16 16 18 18 18 19 20 20 21 22 22 22 23 23 23 23 22 21
17 13 10 20 18 15 15 14 15 12 12 6 11 10 12 13 12 11 6 10 6 6 9 13 9 12 2 3 8 10 13 10 10 8 9 7 11 10 10 9 11 13 13 12 12 13 14 12 11 11 13 17 16 16 13 11 9 8 8 8 9 9 9 9 9 9 10 11 11 12 13 13 14 15 15 16 16 18 18 17 17 19 18 18 19 21 23 24 24 24 24 24 24 24 25 24 21
16 15 15 18 22 21 14 18 17 14 10 10 11 11 11 11 8 11 9 6 2 8 9 7 10 5 5 4 6 6 4 8 13 9 6 9 9 10 12 12 13 13 15 13 12 13 13 12 12 11 12 12 11 14 14 12 11 10 9 9 10 9 9 9 10 11 11 11 12 12 13 14 15 16 17 17 18 19 20 19 20 19 19 19 21 23 25 26 26 26 25 25 25 25 25 25 23
12 14 16 18 21 18 12 12 12 12 11 12 13 12 11 10 10 9 8 7 4 7 7 9 8 6 2 2 2 3 3 10 12 10 8 8 9 9 12 14 15 14 14 13 11 12 13 12 12 11 11 11 11 10 10 11 12 11 10 11 11 10 10 11 12 12 12 12 13 13 13 15 16 16 18 20 19 22 22 21 21 21 21 22 24 25 27 28 28 28 28 27 27 26 25 24 24
15 14 15 16 20 12 9 9 12 12 15 13 14 13 13 5 6 8 5 0 2 4 4 5 7 11 4 2 5 4 9 12 11 11 9 9 9 8 8 11 13 13 13 13 12 11 11 12 11 10 10 10 10 10 10 10 13 13 12 12 11 11 12 12 12 12 13 13 13 14 15 14 14 15 21 20 22 23 23 22 20 20 22 24 25 27 29 30 30 29 28 28 27 27 25 23 22
14 14 16 17 13 8 8 8 9 12 13 12 19 17 15 11 10 3 5 7 7 3 5 8 7 8 2 2 8 8 10 12 11 12 11 8 6 5 6 7 9 10 9 11 10 11 13 12 12 9 10 12 11 10 9 10 10 13 11 13 13 12 12 12 13 13 13 13 14 15 15 14 12 14 16 18 22 21 23 24 24 23 24 25 26 28 28 29 29 28 28 27 27 26 25 22 20
11 13 13 11 12 7 9 8 10 14 12 12 14 12 17 15 12 7 6 8 8 6 9 9 7 8 2 5 7 7 11 13 13 13 10 8 5 5 6 6 8 9 10 10 11 11 11 11 11 10 8 11 10 9 7 8 7 11 10 9 9 9 11 12 11 10 11 8 13 13 10 10 10 11 10 8 11 15 19 23 22 23 23 25 27 28 28 28 28 29 29 26 25 22 23 19 17
14 12 14 10 10 12 10 10 10 11 10 12 15 19 17 18 16 11 8 9 8 7 6 4 6 5 6 8 8 9 13 14 15 13 13 11 7 9 7 6 8 9 9 9 9 nan 10 9 10 10 10 10 11 9 8 7 7 7 8 8 7 9 9 10 9 8 8 8 8 7 10 10 11 9 7 13 11 13 17 17 21 23 25 26 27 28 26 27 28 29 28 27 24 23 21 22 19
16 14 11 9 9 9 8 10 10 12 15 12 13 16 19 17 14 11 12 14 8 7 3 3 5 5 7 10 10 10 15 15 16 15 12 11 10 9 9 10 8 7 8 7 9 nan 10 9 11 10 10 10 8 5 7 6 6 6 7 7 6 5 7 6 8 8 7 7 7 6 8 9 11 10 15 16 17 16 15 21 25 24 25 27 29 24 22 24 27 28 28 24 20 18 16 22 25
10 13 8 7 6 8 7 9 9 10 13 16 15 15 19 19 14 10 12 12 5 5 4 4 9 9 9 11 13 12 15 16 16 15 12 10 10 9 9 9 9 8 8 8 6 8 10 11 11 10 10 nan 8 5 7 7 6 6 6 6 5 3 5 6 7 7 7 7 8 7 9 9 5 6 12 14 15 15 12 9 10 9 18 20 18 15 16 21 21 18 20 21 23 19 21 25 27
11 10 10 5 4 5 7 9 10 11 11 12 14 15 15 21 13 12 13 10 8 10 7 6 11 10 11 14 14 14 15 14 15 15 14 12 11 10 11 9 11 9 7 8 9 7 8 8 10 nan nan nan 8 5 7 5 6 4 3 1 1 3 6 6 5 4 5 7 5 7 4 4 7 10 11 13 9 4 8 7 8 13 16 16 16 19 22 20 18 22 25 25 27 27 28 29 25
6 10 10 4 4 5 6 9 9 12 10 10 12 13 16 15 16 17 12 10 8 8 11 11 11 12 11 11 13 14 15 14 13 13 13 13 12 12 11 10 10 9 8 8 9 8 9 10 10 nan nan nan 10 6 4 4 2 3 0 1 3 4 5 3 3 4 5 2 3 5 5 5 7 7 9 9 3 3 14 8 4 18 16 20 17 22 21 16 21 22 23 27 21 22 26 27 26
10 6 7 4 5 6 3 11 13 9 8 10 12 14 15 21 19 16 11 11 10 10 11 11 12 10 11 12 13 15 16 15 13 12 12 10 11 11 11 11 10 10 9 10 11 11 11 nan 10 nan nan nan 6 6 4 4 1 3 1 1 3 5 3 4 4 5 1 2 4 4 4 7 4 5 0 6 9 8 12 9 13 21 15 16 15 21 22 23 28 26 28 37 29 36 39 40 39
6 8 nan 5 5 8 5 5 8 10 12 12 10 10 12 14 18 16 13 14 14 13 12 11 11 13 11 12 14 15 16 nan nan 13 11 10 10 nan 10 9 11 10 11 11 11 12 12 nan 10 nan nan 9 7 6 6 3 3 4 3 3 3 4 3 5 6 4 3 4 5 5 7 8 8 6 4 9 11 9 9 11 18 18 20 19 21 29 30 26 28 31 37 40 39 35 34 29 30
9 5 6 nan 7 9 8 12 10 9 11 11 12 11 14 13 17 18 19 18 16 15 14 14 13 14 14 12 14 13 14 nan nan nan nan nan nan nan nan nan nan nan 11 nan nan nan nan nan nan nan nan 8 7 nan 2 3 3 2 2 1 2 1 3 6 5 4 5 4 5 5 2 5 7 4 6 5 5 12 18 12 22 24 24 24 26 30 27 23 27 29 27 26 25 25 26 27 27
5 nan nan 6 11 10 12 12 8 9 9 9 12 11 10 13 16 18 24 23 18 17 16 17 16 14 13 10 10 11 nan nan nan nan nan nan nan nan nan nan nan nan nan nan nan nan nan nan nan nan nan 4 nan nan 3 3 2 1 2 1 2 2 4 5 3 5 5 5 2 3 6 6 6 9 8 9 19 14 14 17 21 24 22 21 20 23 19 22 24 21 23 25 23 23 25 26 25
nan nan nan 12 9 14 16 15 10 10 13 11 12 11 10 10 11 16 26 25 22 21 19 17 16 14 11 11 11 10 7 nan nan nan 10 nan nan nan nan nan nan nan nan nan nan nan nan nan nan 8 nan 5 5 6 3 4 1 2 1 2 2 3 3 4 4 5 3 2 3 4 6 6 6 8 8 8 13 9 14 17 27 23 19 21 20 19 19 25 23 21 24 23 20 22 24 22 21
nan nan nan 12 12 12 17 19 16 8 11 13 11 12 12 13 9 14 21 26 25 21 20 18 13 13 13 12 10 8 6 nan nan nan nan nan nan nan nan nan nan nan nan nan nan nan nan nan nan nan nan nan 4 6 nan 3 3 3 1 2 2 2 2 4 5 4 3 3 2 3 4 7 8 9 9 8 13 14 15 18 22 20 16 20 18 16 20 25 22 19 20 19 22 22 20 21 20
nan 12 10 13 10 11 19 20 21 15 14 14 12 9 7 10 11 15 18 21 21 21 22 20 15 14 14 12 8 8 nan nan nan nan nan nan nan nan nan nan nan nan nan nan nan nan nan nan nan nan nan 6 4 6 4 2 4 2 3 4 3 1 3 4 4 4 1 3 3 4 5 5 11 6 9 8 13 15 8 13 29 17 18 17 17 18 19 19 18 19 17 19 20 19 18 21 23
nan 8 9 9 9 7 15 20 22 15 19 20 12 8 8 10 12 17 19 21 21 21 22 20 18 17 12 12 9 7 6 nan nan nan nan nan nan nan nan nan nan nan nan nan nan nan nan nan nan nan nan 7 4 5 5 3 3 4 2 4 4 2 4 4 5 4 4 5 3 2 5 7 8 9 9 12 14 14 11 18 24 18 15 20 17 16 15 18 18 18 16 18 17 16 19 22 21
7 8 nan 10 nan 9 12 16 22 19 19 20 16 11 9 10 14 18 19 20 19 17 19 21 21 18 14 11 10 7 7 nan nan nan nan nan nan nan nan nan nan nan nan nan nan nan nan nan nan nan nan nan nan 5 3 2 2 1 2 3 2 2 4 4 3 4 3 3 3 2 6 6 10 8 12 12 14 14 18 16 18 19 14 15 16 15 15 17 17 18 16 18 17 17 19 20 21
3 nan 6 9 11 nan 8 11 20 22 21 21 18 8 10 10 18 21 21 24 23 20 19 20 22 20 14 8 7 7 9 4 nan nan nan nan nan nan nan nan nan nan nan nan nan nan nan nan nan nan 8 nan nan 6 4 4 1 3 2 4 2 2 4 3 2 3 5 2 5 2 4 7 9 9 10 11 13 15 14 16 15 13 15 16 14 14 14 16 17 15 17 19 19 19 21 20 19
nan 9 9 nan nan 7 8 nan nan 26 24 18 18 10 10 13 20 23 24 26 27 22 20 21 22 20 16 5 4 2 8 3 nan nan nan nan nan nan nan nan nan nan nan nan nan nan nan nan nan nan 6 nan nan 5 4 4 4 2 2 2 2 4 5 5 3 4 6 4 4 4 5 7 8 9 10 10 12 15 14 15 14 11 16 16 11 11 14 16 16 15 17 18 16 18 19 19 15
6 nan 9 10 13 18 16 nan 21 26 25 19 19 14 15 19 21 22 23 25 27 24 23 22 20 20 16 5 4 3 7 1 4 nan nan nan nan nan nan nan nan nan nan nan nan nan nan nan nan 6 nan 7 nan 6 2 3 5 1 3 4 3 3 3 4 5 5 6 8 6 5 6 10 5 7 10 11 13 12 13 12 10 14 16 11 11 14 17 18 16 16 18 17 20 20 21 20 nan
5 8 4 nan nan nan nan nan nan nan nan nan 23 18 17 22 23 23 23 22 25 25 19 15 19 18 20 12 1 9 9 4 1 4 nan nan nan nan nan nan nan nan nan nan nan nan nan nan nan 2 nan nan nan 5 3 3 2 2 2 2 2 1 4 4 6 7 7 8 3 4 8 8 6 9 7 9 12 13 12 11 9 14 10 11 12 17 18 16 15 17 19 19 18 20 20 nan nan
nan nan 7 5 nan nan nan nan nan nan nan 19 24 18 22 23 23 21 22 22 21 23 24 23 19 24 23 15 4 2 5 5 2 4 4 nan nan nan nan nan nan nan nan nan nan nan nan nan nan nan nan nan nan 3 3 3 3 2 1 3 3 4 5 4 7 7 8 7 5 4 8 5 6 8 7 9 9 12 13 11 10 11 10 12 15 18 16 15 17 19 19 17 16 17 18 nan nan
nan nan nan nan nan nan nan nan nan nan nan nan 25 25 23 24 23 20 19 21 23 21 20 21 23 20 19 17 9 5 5 7 2 2 4 7 6 nan nan nan nan nan nan nan nan nan nan nan nan nan nan 4 6 nan nan 4 1 1 1 3 3 4 2 5 7 8 9 6 8 7 7 6 6 7 6 8 11 11 10 10 10 10 13 14 18 19 14 15 17 17 14 16 16 17 nan nan nan
nan nan nan nan nan nan nan nan nan nan nan nan 27 22 22 28 28 23 19 19 19 22 21 19 19 18 18 18 15 7 5 7 4 5 3 4 6 7 4 nan 2 nan nan nan nan nan nan nan 5 nan nan nan 4 nan 4 1 1 2 2 1 3 1 2 5 8 6 7 4 5 6 6 6 5 6 6 8 10 11 8 9 12 10 12 14 13 13 13 19 20 14 15 15 16 nan nan nan 27
nan nan nan nan nan nan nan nan nan nan nan nan nan 24 21 26 25 27 24 17 11 13 14 14 15 18 17 18 18 12 7 4 5 3 2 5 4 5 4 3 2 3 5 5 nan 6 nan 2 5 3 3 nan 1 4 3 3 3 1 8 6 5 8 9 10 11 11 8 5 2 nan 6 4 6 5 5 7 4 6 7 9 10 10 12 10 14 14 14 14 13 14 13 15 19 nan nan nan nan
nan nan nan nan nan nan nan nan nan nan nan nan nan 21 20 24 25 25 28 25 14 7 8 11 8 9 13 15 20 18 13 7 3 4 3 3 2 3 5 1 3 3 4 6 7 6 4 8 5 4 2 4 3 4 2 2 2 4 6 5 8 8 8 11 6 7 8 8 3 2 1 3 3 5 5 7 2 4 5 8 11 10 13 14 11 12 14 14 12 15 12 16 nan 21 nan nan nan
nan nan nan nan nan nan nan nan nan nan nan nan nan nan 19 23 20 22 27 32 29 17 15 16 11 13 19 18 19 19 15 10 5 5 6 5 8 5 4 2 3 1 6 6 6 7 7 7 8 6 2 4 nan 6 5 2 5 3 2 3 5 6 8 7 8 3 4 nan 6 1 4 1 2 4 3 5 5 6 5 7 10 12 10 8 15 12 14 15 14 10 11 nan nan nan nan 25 nan
nan nan nan nan nan nan nan nan nan nan nan nan nan nan nan 21 16 17 24 28 34 27 25 23 18 15 17 19 20 20 18 15 9 5 4 5 10 3 3 3 2 2 4 5 5 6 7 7 8 8 4 3 6 7 5 2 5 0 2 4 5 6 7 7 7 5 nan nan 3 5 5 2 1 2 2 3 4 4 6 8 10 12 9 11 12 12 14 10 12 12 13 nan nan 22 24 25 24
nan nan nan nan nan nan nan nan nan nan nan nan nan nan nan 20 17 23 23 23 28 26 24 27 25 20 21 18 18 18 19 17 11 6 3 2 7 8 3 1 2 1 1 4 5 5 7 6 8 6 3 3 5 8 6 2 3 1 3 7 4 6 5 6 5 7 7 11 10 5 1 4 3 3 3 4 6 5 7 8 10 12 9 12 10 14 12 14 15 15 16 nan 20 23 24 24 24
nan nan nan nan nan nan nan nan nan nan nan nan nan nan nan nan 22 21 25 21 23 22 21 24 29 32 25 23 16 14 15 17 13 9 6 4 6 7 4 5 4 5 2 2 4 5 5 6 8 6 4 4 4 9 5 4 2 1 4 8 9 6 3 2 6 8 7 4 5 3 5 6 2 3 1 2 6 5 6 7 10 10 10 12 13 13 14 13 15 18 18 nan 19 22 24 25 27
nan nan nan nan nan nan nan nan nan nan nan nan nan nan nan 21 19 18 22 17 15 11 14 19 25 27 29 23 16 15 15 16 16 14 11 6 3 9 7 6 5 3 6 4 3 3 5 5 9 7 6 5 3 8 5 4 1 1 4 8 8 10 7 4 4 6 8 6 2 4 6 1 3 3 2 3 5 4 5 8 11 9 12 10 9 10 12 14 15 19 18 18 20 21 22 24 24
nan nan nan nan nan nan nan nan nan nan nan nan nan nan nan 22 20 16 18 11 9 11 13 16 21 22 24 25 23 19 20 19 16 17 15 12 6 5 11 12 8 6 9 18 10 2 4 6 9 7 6 4 4 7 5 4 2 1 3 7 6 8 9 5 4 4 6 7 6 3 2 1 1 5 4 5 7 7 7 8 10 10 8 11 11 10 9 10 12 15 nan 23 21 21 22 23 24
nan nan nan nan nan nan nan nan nan nan nan nan nan nan nan 19 nan 23 17 11 14 11 17 19 21 22 22 24 25 26 22 19 19 17 17 16 11 4 6 8 8 4 8 7 10 6 3 4 8 7 6 3 2 7 5 4 2 2 3 5 6 5 8 4 5 6 5 5 1 3 2 3 1 4 3 4 6 7 6 5 3 4 6 4 7 9 9 11 14 nan nan nan nan 22 22 25 26
nan nan nan nan nan nan nan nan nan nan nan nan nan nan nan nan nan 21 19 12 19 14 15 19 19 19 20 20 21 21 20 23 20 17 18 17 14 9 4 6 7 4 7 5 5 8 2 4 8 10 7 5 1 7 4 3 1 1 3 2 5 7 6 8 4 6 5 4 2 1 3 5 6 6 2 3 2 2 4 3 4 2 4 5 7 9 11 12 14 nan nan 22 23 23 24 24 23
nan nan nan nan nan nan nan nan nan nan nan nan nan nan nan nan 22 25 25 21 18 16 16 19 18 16 18 18 17 18 18 19 19 19 17 16 16 14 9 3 5 8 5 4 4 11 5 6 6 8 9 5 0 3 4 2 2 3 3 4 3 4 6 7 7 3 3 5 4 3 4 5 4 3 3 3 3 4 3 6 6 7 5 7 8 11 13 13 13 16 18 20 nan 22 22 23 24
nan nan nan nan nan nan nan nan nan nan nan nan nan nan 18 nan nan nan 28 35 27 18 16 18 16 15 15 13 12 13 14 15 16 16 16 16 18 17 16 11 3 5 7 5 5 8 14 4 8 8 8 6 2 2 5 2 2 2 5 3 3 2 2 4 6 6 6 4 5 2 3 7 6 4 6 5 6 5 9 6 9 8 8 9 12 14 15 15 15 17 17 21 24 24 21 20 20
nan nan nan nan nan nan nan nan nan nan 5 10 nan 12 nan nan nan nan nan nan 28 22 18 17 16 14 13 11 9 11 12 11 11 14 14 16 17 17 16 14 11 3 7 12 11 11 14 13 10 7 9 7 5 2 4 4 2 2 5 5 4 4 5 3 6 8 11 7 3 nan 6 7 7 8 9 9 7 2 10 9 9 11 10 12 12 11 12 15 17 18 19 18 19 19 20 20 22
nan nan nan nan nan nan nan nan nan nan nan nan nan 12 7 nan nan nan 26 31 nan 23 18 15 15 15 14 12 8 9 9 10 11 10 10 14 15 18 16 15 16 13 3 9 17 15 16 21 13 9 8 8 5 3 3 4 3 2 4 4 2 3 3 2 5 5 5 6 8 7 10 7 8 11 10 8 7 5 10 8 12 13 12 11 11 11 14 16 17 18 18 18 19 20 20 20 20
nan nan nan nan nan nan nan nan nan nan nan 14 nan 11 nan nan nan nan nan 25 nan 16 17 12 16 17 10 11 9 4 9 8 4 3 9 11 11 13 14 16 17 17 13 3 13 18 16 15 21 17 9 7 6 6 2 4 4 2 4 4 2 3 4 3 6 8 nan 7 8 9 9 12 9 10 6 7 10 11 9 9 12 12 13 13 13 14 14 14 16 18 18 18 19 20 20 21 21
nan nan nan nan nan nan nan nan nan nan nan nan 9 nan nan nan nan nan nan 19 nan nan 16 14 15 18 9 10 11 9 7 6 6 4 5 11 9 10 13 18 16 17 16 12 6 15 20 20 26 25 13 5 5 8 3 4 4 4 5 5 3 3 4 7 10 11 nan nan 7 8 7 13 10 12 10 10 11 14 11 10 12 13 13 13 14 14 14 15 17 18 21 22 21 21 20 20 20
nan nan nan nan nan nan nan nan nan nan 12 nan 10 nan 11 10 10 nan nan 9 22 nan 22 19 10 15 10 10 6 9 7 7 9 8 5 6 11 9 15 18 19 18 17 16 11 8 16 18 19 12 11 19 17 7 7 5 4 5 5 6 6 7 8 11 10 13 nan nan nan 9 10 10 11 13 11 14 7 11 14 14 14 15 15 16 15 16 16 17 16 16 19 21 21 21 21 21 23
nan nan nan nan nan nan nan nan nan 11 15 14 10 14 11 7 nan 13 9 nan 22 nan 20 20 14 11 8 12 7 9 5 6 6 4 4 7 11 15 17 18 19 19 18 16 17 15 7 15 20 20 14 13 10 10 10 9 10 9 6 6 6 8 6 11 12 12 12 nan nan nan 12 11 15 12 18 11 11 9 16 13 15 15 16 14 13 14 14 14 15 17 17 19 19 19 20 21 21
nan nan nan nan nan nan nan nan nan nan 13 14 9 15 nan nan nan nan nan 22 26 26 24 9 22 16 16 11 13 8 10 7 5 5 6 6 6 11 13 15 16 19 20 21 20 19 15 12 14 17 15 17 16 11 10 12 11 12 7 8 8 11 12 14 12 nan nan nan nan nan nan 14 15 15 18 14 10 12 13 11 12 16 17 16 13 14 16 15 16 18 20 20 21 20 20 21 23
Wind_Direction
23 29 29 34 36 42 39 25 nan 354 13 56 42 14 7 352 292 298 305 290 254 236 237 209 221 200 202 232 241 214 206 197 182 157 217 238 321 324 318 318 322 315 313 316 313 20 10 34 337 310 301 298 291 284 277 274 275 276 274 272 276 281 287 291 293 293 301 303 302 297 300 314 337 359 41 73 81 91 103 109 121 122 122 119 112 5 10 24 24 19 31 48 51 48 31 33 33
25 30 29 35 40 30 32 26 27 14 329 54 44 344 350 333 331 329 304 248 226 255 270 264 227 200 176 134 nan nan 211 211 237 251 255 293 322 311 309 320 322 315 313 313 329 350 347 345 331 317 308 300 290 284 281 276 274 273 273 275 279 284 289 292 295 305 310 307 307 310 314 325 345 16 58 81 92 100 104 113 116 117 116 111 99 20 19 30 38 58 65 59 59 55 55 54 59
23 29 27 38 46 41 29 16 21 341 nan 30 358 333 345 339 331 294 290 287 252 266 263 250 222 192 178 181 234 212 nan 239 260 268 269 309 315 299 317 324 317 314 313 322 332 342 344 335 331 321 312 299 292 290 285 281 275 272 272 277 282 288 289 292 303 311 312 315 318 322 330 341 27 68 70 80 96 101 102 104 105 112 111 101 94 52 35 44 57 68 68 66 61 58 52 50 53
55 43 43 31 42 38 40 11 17 19 23 45 nan 331 353 342 314 300 295 296 280 276 270 234 206 166 185 227 212 nan 228 248 262 277 274 302 291 310 320 320 311 311 321 330 332 333 335 332 330 322 311 302 299 298 291 282 271 272 274 279 286 288 293 301 311 317 324 327 328 333 351 15 42 73 89 95 100 100 97 95 103 107 103 98 94 62 47 55 64 66 63 59 59 51 43 38 33
56 60 56 36 50 33 26 17 8 15 24 21 355 340 353 341 320 308 307 296 291 281 238 215 213 172 196 202 170 203 nan 253 273 278 270 283 310 319 312 310 314 321 327 327 327 325 326 324 327 314 311 309 310 308 298 286 281 276 283 286 291 296 304 314 321 328 334 339 344 354 8 46 69 92 96 103 103 99 95 95 102 106 101 99 92 73 47 51 54 54 56 54 52 48 43 37 30
55 61 64 45 43 28 39 32 19 17 10 24 9 333 354 335 329 316 312 254 242 260 213 209 205 183 197 180 145 196 167 225 274 263 279 300 311 310 310 317 316 324 325 329 320 324 327 321 321 315 315 319 316 306 301 292 289 292 290 299 303 312 319 325 332 338 349 359 9 15 24 70 87 94 98 99 102 96 99 98 102 101 98 95 85 76 38 46 49 54 54 53 48 45 44 40 39
40 51 37 30 48 19 37 29 33 5 316 353 359 351 358 342 331 313 313 289 173 217 169 209 218 216 209 158 170 177 131 nan 277 269 285 306 308 308 305 307 317 319 326 321 310 320 321 322 322 321 323 321 317 311 306 304 304 305 310 315 323 329 334 342 348 358 13 18 20 45 64 78 90 93 97 99 99 98 97 96 96 92 92 89 80 70 53 46 50 54 53 52 50 44 44 44 46
31 43 32 34 29 11 41 29 38 30 337 1 358 349 355 342 329 313 315 316 332 171 161 185 171 194 185 123 188 132 130 206 285 287 298 306 311 311 316 318 319 321 310 300 312 323 321 324 325 324 321 320 321 319 321 320 318 319 325 328 339 342 349 356 11 24 36 29 54 68 72 87 89 90 92 95 96 96 91 94 93 90 85 82 76 68 59 56 54 55 54 54 55 50 43 45 46
38 37 29 37 29 28 39 31 15 17 334 346 335 343 343 350 335 333 326 289 214 171 188 177 173 177 161 193 182 142 178 252 291 301 305 304 316 316 312 321 326 314 310 312 314 324 327 325 324 321 318 319 322 327 332 332 330 333 339 342 344 352 358 13 33 49 61 69 74 84 79 90 91 89 89 91 93 88 89 93 92 85 80 76 76 73 66 61 60 62 60 58 63 51 46 49 54
55 45 40 32 42 45 41 28 15 33 3 346 336 360 354 354 337 342 321 286 194 150 161 143 156 200 138 203 190 158 178 262 294 320 311 321 314 290 304 317 307 309 304 309 320 330 330 323 324 320 319 319 326 335 340 343 344 349 347 352 354 2 15 37 57 65 79 88 91 89 95 92 91 86 87 89 90 85 87 90 87 82 76 76 78 78 75 70 68 72 72 69 68 64 51 52 56
62 53 48 41 36 43 42 9 24 41 9 344 329 360 360 347 340 323 244 283 107 148 152 167 202 181 150 148 159 137 115 289 312 313 321 327 319 297 302 315 303 308 320 326 325 326 331 328 322 325 321 322 332 342 345 350 357 356 1 3 7 22 40 64 73 81 94 90 92 90 89 87 85 86 85 87 84 85 85 81 78 77 76 75 80 81 79 75 73 74 76 79 77 72 68 58 57
57 45 45 62 53 43 42 20 23 31 22 347 356 3 0 342 343 340 343 310 7 167 177 152 145 144 178 132 157 146 138 310 306 315 314 320 302 292 299 317 323 321 323 328 326 329 336 330 329 326 327 329 334 345 352 355 3 9 14 25 34 40 59 69 82 92 93 93 89 86 83 82 80 82 80 79 78 79 79 77 73 72 72 76 79 80 79 79 79 77 77 80 80 78 72 67 61
68 61 46 57 59 45 40 25 6 18 15 345 8 11 356 346 331 320 334 328 307 222 165 143 152 129 173 169 140 143 136 305 312 315 318 326 303 301 318 327 331 331 333 334 335 338 337 340 337 336 333 334 339 346 355 4 14 23 34 44 50 58 64 73 84 91 87 87 87 83 82 82 81 77 80 74 69 69 72 71 70 70 72 74 75 76 77 78 77 78 77 76 77 77 76 72 68
41 38 43 52 54 41 29 22 16 24 19 355 354 357 351 337 336 333 331 325 285 186 142 131 142 154 210 183 154 141 148 296 313 325 324 317 311 319 327 330 327 333 335 339 346 343 339 342 340 337 335 342 347 352 358 10 24 32 43 53 60 63 69 76 78 78 84 85 86 85 83 81 77 76 75 71 67 67 65 64 63 66 68 70 71 71 74 75 77 79 79 77 74 74 73 72 70
53 34 31 37 58 47 36 24 14 20 33 355 1 357 334 337 338 341 342 320 201 162 130 127 163 141 114 43 91 102 318 304 310 322 326 310 312 322 334 332 328 334 336 338 346 348 346 342 342 334 342 347 346 4 14 21 29 43 49 60 65 67 71 71 72 74 80 83 82 83 83 83 81 81 78 70 64 61 60 58 57 59 61 63 66 68 70 71 74 76 78 78 75 72 72 74 70
36 41 35 36 50 41 33 31 11 9 21 2 359 340 320 333 6 357 37 221 90 135 105 180 155 168 329 67 346 18 323 308 313 327 317 310 314 322 334 326 332 342 342 338 347 356 356 348 345 336 347 354 350 9 14 21 35 40 53 58 63 64 65 67 69 73 76 80 82 79 79 81 85 78 71 63 58 57 55 52 50 47 49 59 63 64 66 69 72 75 76 77 76 75 76 77 75
37 32 44 45 51 46 45 39 34 13 24 8 356 355 339 355 46 50 34 302 310 304 229 203 176 136 347 330 332 349 319 308 319 315 314 305 318 334 345 339 335 347 339 338 349 1 1 353 346 336 352 358 360 5 8 21 32 41 52 58 60 63 67 66 68 75 80 83 80 78 76 76 68 66 62 45 48 47 45 45 47 50 56 58 63 66 69 72 74 76 77 77 77 75 76 79 75
40 48 61 41 44 46 52 39 22 16 11 8 9 341 336 338 15 28 340 291 273 265 227 213 199 169 270 324 347 349 316 316 316 322 312 308 327 337 353 341 346 356 346 342 348 0 1 352 342 343 357 353 6 3 7 23 31 39 52 57 64 66 66 67 74 80 82 80 73 69 75 71 64 51 54 64 47 33 37 35 41 51 58 61 64 67 71 74 77 77 73 75 76 74 82 68 55
45 55 45 50 32 35 45 43 18 18 14 17 355 342 342 352 352 25 340 322 300 266 221 240 241 186 296 338 345 352 321 313 322 323 318 321 333 343 349 350 360 351 345 343 351 nan 2 349 345 344 0 350 5 5 356 5 10 47 52 49 51 52 58 61 73 76 80 70 71 60 51 61 58 43 40 44 43 49 53 60 54 59 64 67 68 70 77 78 79 78 72 71 71 66 59 55 43
35 38 47 32 45 26 49 34 25 10 5 7 2 351 342 351 349 8 339 336 328 308 290 267 307 305 312 330 349 345 326 321 323 330 325 323 335 349 344 1 342 348 347 352 351 nan 353 355 347 344 359 351 6 8 345 347 12 30 48 41 41 37 57 59 56 71 68 73 81 67 65 53 50 35 37 37 39 39 46 54 58 64 72 72 75 72 74 74 71 67 61 63 58 42 36 49 40
22 51 47 37 37 41 38 36 35 21 11 8 6 356 339 2 342 1 341 330 356 17 43 329 329 327 316 334 344 349 331 327 329 331 331 327 337 352 353 357 343 352 354 351 4 348 350 353 345 346 353 nan 347 18 339 357 7 30 40 31 42 1 45 47 55 44 53 50 59 62 64 70 59 37 27 27 27 38 41 47 63 56 64 63 75 64 61 66 62 51 47 54 46 34 44 43 43
36 59 61 33 1 37 24 23 33 38 20 15 11 1 346 339 320 2 4 352 17 25 29 345 337 338 326 339 349 346 333 331 333 335 338 337 343 352 354 347 338 358 339 346 352 343 352 358 347 nan nan nan 334 30 350 1 0 47 46 33 82 48 40 42 55 58 53 19 52 70 71 66 35 31 39 39 32 48 70 61 73 76 57 71 65 62 57 58 57 47 43 46 36 29 36 39 36
23 42 55 350 345 20 36 11 32 46 33 23 16 4 1 332 349 21 10 5 19 23 2 348 338 339 334 349 348 342 337 333 337 340 339 339 343 346 348 346 348 347 346 349 340 353 357 8 353 nan nan nan 338 8 7 333 14 95 10 74 71 70 73 56 57 60 57 75 92 87 65 36 44 27 47 57 13 76 78 52 90 81 54 59 61 64 62 54 57 51 47 57 45 45 39 40 33
46 53 43 340 20 327 24 343 32 22 35 21 15 15 355 350 346 30 7 24 3 11 346 348 344 334 342 351 350 345 336 340 335 335 333 344 341 341 344 343 351 335 357 347 355 352 359 nan 344 nan nan nan 329 351 12 311 303 71 101 22 82 100 103 89 66 59 80 45 47 82 51 26 337 78 82 137 88 50 74 91 54 60 68 65 83 77 60 43 47 33 37 47 30 38 37 31 25
43 30 nan 5 348 301 317 345 4 23 14 22 16 12 6 354 341 359 13 27 8 357 343 347 346 341 353 357 345 348 336 nan nan 330 343 339 341 nan 340 344 341 334 353 350 350 346 359 nan 337 nan nan 341 337 354 350 327 337 68 11 30 34 50 95 88 88 121 86 50 34 18 30 46 350 10 38 25 75 82 102 75 80 76 70 52 40 59 54 44 35 35 35 35 29 30 32 36 31
12 26 34 nan 317 300 316 345 17 34 22 27 33 12 8 355 342 343 5 36 13 350 345 347 351 350 357 5 339 346 337 nan nan nan nan nan nan nan nan nan nan nan 337 nan nan nan nan nan nan nan nan 340 334 nan 309 331 314 85 50 23 47 331 76 80 92 67 57 62 28 18 35 51 0 14 51 117 105 64 60 44 72 65 61 55 42 45 50 44 49 42 46 46 40 40 41 37 35
55 nan nan 11 315 324 324 325 355 26 19 17 41 27 10 355 15 352 359 16 8 354 356 352 351 353 354 5 336 342 nan nan nan nan nan nan nan nan nan nan nan nan nan nan nan nan nan nan nan nan nan 331 nan nan 311 317 299 300 121 349 34 20 41 68 64 80 83 46 343 349 36 27 52 16 51 17 65 53 66 71 66 65 59 57 59 63 59 58 54 48 56 51 44 39 44 42 36
nan nan nan 348 328 329 322 321 348 37 20 354 44 26 21 11 19 347 357 2 10 360 3 356 349 347 355 350 347 329 2 nan nan nan 338 nan nan nan nan nan nan nan nan nan nan nan nan nan nan 339 nan 354 309 347 300 299 263 304 142 127 56 17 37 61 52 71 65 77 356 353 19 53 64 67 56 70 74 74 87 77 73 63 64 66 57 56 59 60 54 47 57 56 51 46 42 42 40
nan nan nan 342 349 346 322 332 347 20 40 21 28 37 24 17 3 347 353 358 1 359 360 358 353 340 351 339 345 329 5 nan nan nan nan nan nan nan nan nan nan nan nan nan nan nan nan nan nan nan nan nan 354 321 nan 306 321 346 0 68 78 1 12 70 86 55 37 52 27 16 26 50 61 81 60 80 93 78 70 90 79 76 64 63 64 73 60 59 57 50 53 57 52 46 49 49 48
nan 35 28 5 9 9 324 324 337 3 22 24 26 43 32 19 345 344 357 0 354 358 359 2 358 353 342 337 333 331 nan nan nan nan nan nan nan nan nan nan nan nan nan nan nan nan nan nan nan nan nan 339 29 307 303 329 321 359 353 18 70 27 43 49 81 80 54 40 359 41 55 66 90 83 101 99 92 91 82 92 91 75 76 70 64 58 65 64 60 58 50 53 54 52 54 54 47
nan 353 8 347 35 7 326 336 333 338 350 9 17 35 18 7 347 345 356 5 1 2 357 360 1 350 341 334 327 330 332 nan nan nan nan nan nan nan nan nan nan nan nan nan nan nan nan nan nan nan nan 325 21 293 316 334 335 345 21 59 13 44 89 78 36 53 30 33 44 50 84 95 81 96 102 98 97 95 80 58 80 83 76 78 61 60 59 65 59 58 49 59 54 50 54 50 51
17 1 nan 329 nan 8 346 351 340 342 5 9 14 23 17 8 356 352 355 4 7 8 1 358 7 360 343 337 332 326 302 nan nan nan nan nan nan nan nan nan nan nan nan nan nan nan nan nan nan nan nan nan nan 284 316 242 322 56 5 31 17 37 62 41 64 59 38 52 66 72 96 90 110 110 107 103 103 96 85 77 66 79 81 77 81 57 54 58 59 57 52 54 46 51 49 52 47
318 nan 312 336 354 nan 328 10 353 348 349 3 13 1 1 6 354 351 354 357 6 10 6 2 7 4 352 338 316 313 290 1 nan nan nan nan nan nan nan nan nan nan nan nan nan nan nan nan nan nan 333 nan nan 331 329 309 61 21 41 29 41 12 41 73 70 77 93 87 109 139 104 108 98 115 103 104 99 89 93 93 93 95 90 83 65 77 62 55 58 66 50 45 38 41 44 48 46
nan 351 11 nan nan 326 0 nan nan 340 348 355 4 352 353 351 355 349 354 357 0 2 7 4 9 5 3 287 220 345 284 338 nan nan nan nan nan nan nan nan nan nan nan nan nan nan nan nan nan nan 349 nan nan 321 338 319 37 48 61 65 47 358 44 44 34 82 95 98 115 126 121 101 103 97 105 113 98 91 80 82 95 93 88 90 85 85 75 65 56 54 53 40 38 46 39 41 29
318 nan 358 340 1 360 13 nan 342 348 357 345 343 355 339 347 347 348 359 358 352 2 3 3 6 4 10 333 150 15 303 334 342 nan nan nan nan nan nan nan nan nan nan nan nan nan nan nan nan 306 nan 333 nan 324 330 6 10 18 31 50 349 106 106 91 84 75 83 115 166 160 134 107 102 116 110 86 91 94 91 94 102 96 85 84 82 68 62 59 53 51 51 42 33 33 37 33 nan
328 350 337 nan nan nan nan nan nan nan nan nan 334 343 344 338 345 349 350 359 355 357 353 354 354 10 14 26 92 201 167 344 354 352 nan nan nan nan nan nan nan nan nan nan nan nan nan nan nan 327 nan nan nan 331 343 33 30 344 26 61 316 35 77 96 102 104 117 119 179 123 114 119 144 127 117 103 93 93 94 95 78 74 83 76 65 65 56 52 54 49 48 48 42 36 28 nan nan
nan nan 354 17 nan nan nan nan nan nan nan 309 342 315 332 335 344 348 344 347 360 358 352 353 360 13 17 20 51 207 134 119 345 3 338 nan nan nan nan nan nan nan nan nan nan nan nan nan nan nan nan nan nan 354 344 42 18 317 50 21 2 7 74 64 95 107 111 134 146 168 117 132 137 108 104 110 105 90 92 82 86 74 69 64 59 61 57 56 50 44 41 37 54 46 32 nan nan
nan nan nan nan nan nan nan nan nan nan nan nan 299 325 332 330 340 351 341 347 354 356 354 356 355 4 19 24 30 104 129 135 89 13 7 322 314 nan nan nan nan nan nan nan nan nan nan nan nan nan nan 33 335 nan nan 40 337 354 13 49 20 355 61 99 108 119 105 198 176 160 130 164 159 139 119 91 79 86 86 90 83 58 60 50 54 51 57 52 52 41 33 35 41 46 nan nan nan
nan nan nan nan nan nan nan nan nan nan nan nan 310 312 312 324 336 339 346 0 349 342 353 357 353 1 16 31 36 57 135 130 81 24 4 338 342 331 319 nan 4 nan nan nan nan nan nan nan 325 nan nan nan 341 nan 318 41 33 353 31 138 152 85 8 100 116 117 138 203 167 135 141 178 124 99 88 51 67 74 85 81 81 57 58 56 47 48 46 50 43 36 26 30 40 nan nan nan 21
nan nan nan nan nan nan nan nan nan nan nan nan nan 305 313 319 322 329 342 346 348 328 341 345 348 354 6 29 34 37 45 88 100 115 44 21 348 312 322 338 348 354 325 346 nan 17 nan 52 305 334 27 nan 52 331 315 10 8 53 233 185 183 174 157 149 168 152 163 225 177 nan 159 168 128 90 89 83 50 74 77 85 84 72 57 50 59 41 38 59 39 37 23 28 33 nan nan nan nan
nan nan nan nan nan nan nan nan nan nan nan nan nan 292 317 316 319 331 337 330 331 355 339 351 352 339 0 26 35 34 31 47 106 129 142 49 328 264 289 5 335 354 336 347 351 3 5 18 330 331 22 15 56 302 342 357 247 237 214 188 161 166 141 159 153 152 163 162 156 117 311 144 125 107 38 84 45 88 47 70 77 64 54 42 48 47 32 46 40 31 23 27 nan 27 nan nan nan
nan nan nan nan nan nan nan nan nan nan nan nan nan nan 310 313 332 332 325 323 323 341 356 355 358 14 9 25 30 30 34 45 85 132 153 87 274 234 260 73 318 63 333 342 357 359 356 12 341 342 16 358 nan 325 360 38 261 231 190 140 142 144 146 138 126 132 136 nan 102 112 280 318 48 75 84 68 51 45 51 57 64 74 60 42 52 34 45 32 28 15 30 nan nan nan nan 26 nan
nan nan nan nan nan nan nan nan nan nan nan nan nan nan nan 313 337 325 322 324 319 336 356 340 339 22 20 7 19 25 31 35 56 110 143 143 276 240 56 4 340 6 319 350 358 340 353 352 327 352 346 360 27 321 8 57 282 198 66 88 118 125 130 126 125 120 nan nan 169 208 259 258 87 88 81 128 108 74 44 48 52 57 49 49 45 35 32 35 31 13 24 nan nan 25 16 19 19
nan nan nan nan nan nan nan nan nan nan nan nan nan nan nan 307 319 324 326 317 316 337 349 335 331 7 39 35 18 17 24 33 33 46 93 160 218 226 160 229 275 205 67 310 342 327 343 333 323 343 323 354 42 324 5 50 287 99 109 104 109 110 101 137 135 143 196 192 208 218 200 288 321 85 3 74 52 45 49 42 55 54 45 44 34 39 31 23 31 8 13 nan 26 22 13 14 18
nan nan nan nan nan nan nan nan nan nan nan nan nan nan nan nan 304 317 311 311 326 341 352 347 345 344 16 36 25 11 23 34 33 28 46 84 185 171 212 191 188 164 154 307 324 313 332 332 311 337 328 349 60 322 358 28 281 148 125 108 134 122 128 172 169 170 219 211 221 177 205 236 130 267 65 24 81 12 50 36 43 53 40 36 46 22 28 24 21 352 5 nan 24 21 14 13 13
nan nan nan nan nan nan nan nan nan nan nan nan nan nan nan 292 292 306 312 318 326 355 358 1 355 352 355 9 21 19 24 34 31 35 42 39 159 163 206 197 162 165 243 101 296 305 332 325 310 330 329 359 19 322 341 29 315 200 132 136 142 149 157 206 196 206 188 228 219 224 225 310 21 306 345 48 73 27 17 24 41 30 30 28 37 38 17 26 11 353 359 6 17 18 18 16 12
nan nan nan nan nan nan nan nan nan nan nan nan nan nan nan 281 287 287 300 312 353 360 350 357 354 354 356 350 0 20 17 20 25 36 41 37 33 146 181 166 197 163 186 198 177 328 339 327 313 324 311 8 330 319 331 359 49 288 159 144 164 148 143 213 228 230 230 212 203 280 261 304 147 323 18 43 23 33 6 30 30 11 27 16 22 27 13 23 9 6 nan 1 6 14 15 14 12
nan nan nan nan nan nan nan nan nan nan nan nan nan nan nan 278 nan 288 313 342 331 7 354 1 351 348 353 351 359 2 5 12 17 31 41 43 44 66 170 164 194 178 182 219 167 137 299 328 308 308 304 359 332 324 333 351 36 238 197 157 173 159 150 191 188 255 237 261 225 176 210 309 316 332 357 35 24 8 351 19 7 15 12 18 2 1 11 18 12 nan nan nan nan 10 16 14 10
nan nan nan nan nan nan nan nan nan nan nan nan nan nan nan nan nan 293 297 322 319 352 342 350 347 346 352 354 2 355 358 3 11 27 35 42 46 55 90 180 186 187 212 208 146 141 229 290 314 309 298 334 101 320 331 341 332 258 215 223 183 172 166 171 209 205 239 259 257 253 226 215 230 179 297 22 274 316 288 321 349 351 321 345 356 4 4 12 16 nan nan 358 4 10 14 15 5
nan nan nan nan nan nan nan nan nan nan nan nan nan nan nan nan 303 314 320 320 324 333 335 336 343 342 342 352 360 351 350 356 3 19 33 42 45 47 56 79 196 213 228 209 156 157 176 268 271 316 301 310 242 298 317 331 334 267 229 240 215 185 179 161 189 221 221 240 255 236 291 284 278 302 266 237 335 327 298 290 297 297 320 345 353 355 357 2 10 2 3 2 nan 9 15 10 4
nan nan nan nan nan nan nan nan nan nan nan nan nan nan 260 nan nan nan 313 306 316 316 324 327 323 330 337 350 7 353 357 352 354 6 23 37 43 41 44 48 67 215 219 225 208 179 170 254 257 274 288 298 295 256 277 300 307 294 254 229 233 219 192 186 187 185 225 237 280 291 254 291 301 292 295 270 254 278 297 301 306 312 330 351 4 4 349 352 360 358 4 6 1 0 6 10 0
nan nan nan nan nan nan nan nan nan nan 183 274 nan 247 nan nan nan nan nan nan 282 294 310 306 317 325 336 340 6 13 7 348 353 354 17 34 36 38 43 45 51 57 231 219 218 205 184 197 256 273 277 294 310 235 267 305 261 295 253 228 210 217 213 217 215 194 192 214 262 nan 257 231 273 278 261 266 273 299 288 308 323 321 338 355 354 350 347 352 355 358 3 4 354 353 357 358 1
nan nan nan nan nan nan nan nan nan nan nan nan nan 257 262 nan nan nan 299 293 nan 303 300 322 320 315 323 327 347 17 8 4 1 354 10 30 39 40 38 36 34 38 4 222 218 209 208 199 195 251 261 297 314 293 306 294 280 249 263 264 225 214 239 221 235 240 200 206 213 233 275 275 261 257 287 289 301 298 297 325 315 325 340 345 341 339 343 350 354 352 353 354 351 351 358 358 2
nan nan nan nan nan nan nan nan nan nan nan 221 nan 283 nan nan nan nan nan 271 nan 285 303 316 317 297 303 311 308 356 16 6 205 308 349 12 32 43 42 40 33 32 25 336 229 212 218 226 197 183 276 285 287 288 299 296 296 294 275 283 237 218 223 231 224 249 nan 216 216 226 249 280 273 286 269 306 301 286 281 295 311 328 341 343 340 334 336 340 342 348 345 346 348 352 355 356 357
nan nan nan nan nan nan nan nan nan nan nan nan 230 nan nan nan nan nan nan 290 nan nan 303 304 305 305 312 328 340 351 355 300 331 324 351 355 6 29 39 43 34 28 20 6 269 216 206 219 229 203 164 265 286 279 262 251 284 252 249 267 273 232 213 225 214 239 nan nan 229 241 233 261 277 269 275 252 283 298 307 316 316 332 331 334 330 327 335 339 345 345 347 345 347 348 352 349 350
nan nan nan nan nan nan nan nan nan nan 268 nan 225 nan 240 205 252 nan nan 247 281 nan 284 287 282 277 287 322 348 339 313 309 350 346 10 357 323 16 39 40 37 31 20 8 347 248 218 223 252 251 202 231 202 227 267 232 251 258 247 258 259 230 214 223 223 219 nan nan nan 243 242 248 265 273 270 274 275 298 304 313 327 330 330 329 330 332 333 341 344 348 342 337 340 344 345 347 346
nan nan nan nan nan nan nan nan nan 235 243 223 210 243 217 217 nan 324 261 nan 241 nan 281 297 293 263 307 313 305 305 317 297 313 311 15 34 347 11 25 23 26 24 16 15 6 351 310 256 248 245 235 260 252 224 246 241 224 234 234 252 264 260 236 223 237 230 227 nan nan nan 252 255 254 256 267 267 283 277 295 315 323 319 322 318 321 322 324 329 331 327 327 332 337 339 340 344 347
nan nan nan nan nan nan nan nan nan nan 255 253 234 237 nan nan nan nan nan 225 240 247 257 265 299 328 307 287 271 307 315 328 311 327 336 357 10 34 38 13 14 18 17 17 17 15 4 291 267 264 252 256 257 243 255 258 240 230 232 232 239 251 244 232 229 nan nan nan nan nan nan 257 265 257 267 280 282 288 296 292 302 309 307 312 307 313 325 332 329 330 331 335 335 336 340 343 345